Time,TemperatureF,DewpointF,PressureIn,WindDirection,WindDirectionDegrees,WindSpeedMPH,WindSpeedGustMPH,Humidity,HourlyPrecipIn,Conditions,Clouds,dailyrainin,SoftwareType,DateUTC
2013-03-16 00:02:00,36.3,27.0,29.69,WSW,245,7.0,-999.0,69,-99.99,,,0.00,weatherlink.com 1.10,2013-03-16 04:02:00,
2013-03-16 00:15:00,36.7,27.0,29.69,WSW,246,5.0,-999.0,69,-99.99,,,0.00,weatherlink.com 1.10,2013-03-16 04:15:00,
2013-03-16 00:30:00,36.8,27.0,29.69,NNW,345,4.0,-999.0,69,-99.99,,,0.00,weatherlink.com 1.10,2013-03-16 04:30:00,
2013-03-16 00:45:00,36.5,27.0,29.70,WSW,243,2.0,-999.0,69,-99.99,,,0.00,weatherlink.com 1.10,2013-03-16 04:45:00,
2013-03-16 01:01:00,36.0,27.0,29.70,SW,233,6.0,-999.0,70,-99.99,,,0.00,weatherlink.com 1.10,2013-03-16 05:01:00,
2013-03-16 01:15:00,35.8,27.0,29.70,SSW,210,5.0,-999.0,69,-99.99,,,0.00,weatherlink.com 1.10,2013-03-16 05:15:00,
2013-03-16 01:30:00,35.3,26.0,29.70,SW,218,4.0,-999.0,70,-99.99,,,0.00,weatherlink.com 1.10,2013-03-16 05:30:00,
2013-03-16 01:45:00,34.9,26.0,29.71,SW,236,2.0,-999.0,69,-99.99,,,0.00,weatherlink.com 1.10,2013-03-16 05:45:00,
2013-03-16 02:02:00,34.7,25.0,29.71,WSW,248,0.0,-999.0,69,-99.99,,,0.00,weatherlink.com 1.10,2013-03-16 06:02:00,
2013-03-16 02:15:00,34.4,25.0,29.72,SW,231,4.0,-999.0,69,-99.99,,,0.00,weatherlink.com 1.10,2013-03-16 06:15:00,
2013-03-16 02:30:00,34.3,25.0,29.73,SW,224,0.0,-999.0,69,-99.99,,,0.00,weatherlink.com 1.10,2013-03-16 06:30:00,
2013-03-16 02:45:00,33.8,25.0,29.73,SW,220,0.0,-999.0,69,-99.99,,,0.00,weatherlink.com 1.10,2013-03-16 06:45:00,
2013-03-16 03:02:00,33.7,25.0,29.73,WSW,248,0.0,-999.0,69,-99.99,,,0.00,weatherlink.com 1.10,2013-03-16 07:02:00,
2013-03-16 03:15:00,33.4,25.0,29.74,WSW,258,2.0,-999.0,70,-99.99,,,0.00,weatherlink.com 1.10,2013-03-16 07:15:00,
2013-03-16 03:30:00,33.5,25.0,29.75,WNW,288,0.0,-999.0,70,-99.99,,,0.00,weatherlink.com 1.10,2013-03-16 07:30:00,
2013-03-16 03:45:00,33.1,24.0,29.75,WNW,285,0.0,-999.0,70,-99.99,,,0.00,weatherlink.com 1.10,2013-03-16 07:45:00,
2013-03-16 04:02:00,32.7,24.0,29.75,WNW,285,0.0,-999.0,71,-99.99,,,0.00,weatherlink.com 1.10,2013-03-16 08:02:00,
2013-03-16 04:15:00,32.6,24.0,29.76,West,270,2.0,-999.0,71,-99.99,,,0.00,weatherlink.com 1.10,2013-03-16 08:15:00,
2013-03-16 04:30:00,32.5,24.0,29.76,NW,310,0.0,-999.0,70,-99.99,,,0.00,weatherlink.com 1.10,2013-03-16 08:30:00,
2013-03-16 04:45:00,32.1,23.0,29.77,West,278,0.0,-999.0,70,-99.99,,,0.00,weatherlink.com 1.10,2013-03-16 08:45:00,
2013-03-16 05:03:00,31.5,23.0,29.78,WNW,285,0.0,-999.0,71,-99.99,,,0.00,weatherlink.com 1.10,2013-03-16 09:03:00,
2013-03-16 05:15:00,31.3,23.0,29.79,SSW,210,0.0,-999.0,71,-99.99,,,0.00,weatherlink.com 1.10,2013-03-16 09:15:00,
2013-03-16 05:30:00,30.8,22.0,29.80,SSW,210,0.0,-999.0,71,-99.99,,,0.00,weatherlink.com 1.10,2013-03-16 09:30:00,
2013-03-16 05:45:00,30.3,22.0,29.80,SSW,210,0.0,-999.0,71,-99.99,,,0.00,weatherlink.com 1.10,2013-03-16 09:45:00,
2013-03-16 06:02:00,29.8,21.0,29.81,SSW,210,0.0,-999.0,71,-99.99,,,0.00,weatherlink.com 1.10,2013-03-16 10:02:00,
2013-03-16 06:15:00,29.6,21.0,29.81,SSW,210,0.0,-999.0,71,-99.99,,,0.00,weatherlink.com 1.10,2013-03-16 10:15:00,
2013-03-16 06:30:00,29.1,21.0,29.81,SSW,210,0.0,-999.0,71,-99.99,,,0.00,weatherlink.com 1.10,2013-03-16 10:30:00,
2013-03-16 06:45:00,28.9,21.0,29.81,SSW,210,0.0,-999.0,71,-99.99,,,0.00,weatherlink.com 1.10,2013-03-16 10:45:00,
2013-03-16 07:02:00,29.0,21.0,29.81,SSW,210,0.0,-999.0,71,-99.99,,,0.00,weatherlink.com 1.10,2013-03-16 11:02:00,
2013-03-16 07:15:00,28.9,21.0,29.82,SSW,210,0.0,-999.0,71,-99.99,,,0.00,weatherlink.com 1.10,2013-03-16 11:15:00,
2013-03-16 07:30:00,29.2,21.0,29.82,SSW,210,0.0,-999.0,71,-99.99,,,0.00,weatherlink.com 1.10,2013-03-16 11:30:00,
2013-03-16 07:45:00,29.7,21.0,29.83,SSW,210,0.0,-999.0,71,-99.99,,,0.00,weatherlink.com 1.10,2013-03-16 11:45:00,
2013-03-16 08:02:00,30.8,22.0,29.83,SSW,210,0.0,-999.0,71,-99.99,,,0.00,weatherlink.com 1.10,2013-03-16 12:02:00,
2013-03-16 08:15:00,31.4,22.0,29.83,NW,325,1.0,-999.0,69,-99.99,,,0.00,weatherlink.com 1.10,2013-03-16 12:15:00,
2013-03-16 08:30:00,32.7,21.0,29.83,NW,318,1.0,-999.0,63,-99.99,,,0.00,weatherlink.com 1.10,2013-03-16 12:30:00,
2013-03-16 08:45:00,33.2,21.0,29.83,NW,308,2.0,-999.0,60,-99.99,,,0.00,weatherlink.com 1.10,2013-03-16 12:45:00,
2013-03-16 09:02:00,34.4,20.0,29.84,NNW,341,1.0,-999.0,57,-99.99,,,0.00,weatherlink.com 1.10,2013-03-16 13:02:00,
2013-03-16 09:15:00,35.0,21.0,29.84,NW,326,0.0,-999.0,57,-99.99,,,0.00,weatherlink.com 1.10,2013-03-16 13:15:00,
2013-03-16 09:30:00,36.4,21.0,29.84,West,268,0.0,-999.0,55,-99.99,,,0.00,weatherlink.com 1.10,2013-03-16 13:30:00,
2013-03-16 09:45:00,36.1,22.0,29.84,NNW,338,3.0,-999.0,58,-99.99,,,0.00,weatherlink.com 1.10,2013-03-16 13:45:00,
2013-03-16 10:02:00,37.1,21.0,29.84,NNW,337,0.0,-999.0,53,-99.99,,,0.00,weatherlink.com 1.10,2013-03-16 14:02:00,
2013-03-16 10:15:00,36.8,20.0,29.84,NW,320,0.0,-999.0,51,-99.99,,,0.00,weatherlink.com 1.10,2013-03-16 14:15:00,
2013-03-16 10:30:00,36.1,19.0,29.84,NW,310,1.0,-999.0,50,-99.99,,,0.00,weatherlink.com 1.10,2013-03-16 14:30:00,
2013-03-16 10:45:00,36.8,20.0,29.83,North,3,0.0,-999.0,51,-99.99,,,0.00,weatherlink.com 1.10,2013-03-16 14:45:00,
2013-03-16 11:02:00,36.4,19.0,29.83,SW,218,0.0,-999.0,50,-99.99,,,0.00,weatherlink.com 1.10,2013-03-16 15:02:00,
2013-03-16 11:15:00,35.5,19.0,29.83,SSW,210,3.0,-999.0,52,-99.99,,,0.00,weatherlink.com 1.10,2013-03-16 15:15:00,
2013-03-16 11:30:00,37.2,21.0,29.83,SW,219,0.0,-999.0,52,-99.99,,,0.00,weatherlink.com 1.10,2013-03-16 15:30:00,
2013-03-16 11:45:00,37.0,21.0,29.83,SW,221,3.0,-999.0,52,-99.99,,,0.00,weatherlink.com 1.10,2013-03-16 15:45:00,
2013-03-16 12:02:00,37.0,19.0,29.82,SSW,205,0.0,-999.0,49,-99.99,,,0.00,weatherlink.com 1.10,2013-03-16 16:02:00,
2013-03-16 12:15:00,36.9,18.0,29.82,SW,224,0.0,-999.0,46,-99.99,,,0.00,weatherlink.com 1.10,2013-03-16 16:15:00,
2013-03-16 12:30:00,37.4,19.0,29.82,SSW,210,0.0,-999.0,48,-99.99,,,0.00,weatherlink.com 1.10,2013-03-16 16:30:00,
2013-03-16 12:45:00,37.1,17.0,29.82,WNW,289,0.0,-999.0,45,-99.99,,,0.00,weatherlink.com 1.10,2013-03-16 16:45:00,
2013-03-16 13:02:00,37.5,16.0,29.81,SSW,210,0.0,-999.0,42,-99.99,,,0.00,weatherlink.com 1.10,2013-03-16 17:02:00,
2013-03-16 13:15:00,37.7,16.0,29.80,SSW,196,0.0,-999.0,42,-99.99,,,0.00,weatherlink.com 1.10,2013-03-16 17:15:00,
2013-03-16 13:30:00,39.1,18.0,29.79,NNE,33,0.0,-999.0,42,-99.99,,,0.00,weatherlink.com 1.10,2013-03-16 17:30:00,
2013-03-16 13:45:00,39.4,20.0,29.79,East,81,1.0,-999.0,46,-99.99,,,0.00,weatherlink.com 1.10,2013-03-16 17:45:00,
2013-03-16 14:02:00,37.7,20.0,29.79,East,91,3.0,-999.0,50,-99.99,,,0.00,weatherlink.com 1.10,2013-03-16 18:02:00,
2013-03-16 14:15:00,37.9,22.0,29.79,SE,124,4.0,-999.0,54,-99.99,,,0.00,weatherlink.com 1.10,2013-03-16 18:15:00,
2013-03-16 14:30:00,39.1,23.0,29.79,ESE,120,0.0,-999.0,53,-99.99,,,0.00,weatherlink.com 1.10,2013-03-16 18:30:00,
2013-03-16 14:45:00,38.9,23.0,29.79,SSW,195,1.0,-999.0,54,-99.99,,,0.00,weatherlink.com 1.10,2013-03-16 18:45:00,
2013-03-16 15:02:00,38.7,23.0,29.79,SSW,200,2.0,-999.0,54,-99.99,,,0.00,weatherlink.com 1.10,2013-03-16 19:02:00,
2013-03-16 15:15:00,38.6,24.0,29.79,ESE,118,0.0,-999.0,55,-99.99,,,0.00,weatherlink.com 1.10,2013-03-16 19:15:00,
2013-03-16 15:30:00,37.3,24.0,29.79,South,176,6.0,-999.0,58,-99.99,,,0.00,weatherlink.com 1.10,2013-03-16 19:30:00,
2013-03-16 15:45:00,36.9,22.0,29.79,South,185,0.0,-999.0,55,-99.99,,,0.00,weatherlink.com 1.10,2013-03-16 19:45:00,
2013-03-16 16:02:00,36.8,23.0,29.80,South,185,5.0,-999.0,57,-99.99,,,0.00,weatherlink.com 1.10,2013-03-16 20:02:00,
2013-03-16 16:15:00,36.9,23.0,29.79,SSW,195,3.0,-999.0,58,-99.99,,,0.00,weatherlink.com 1.10,2013-03-16 20:15:00,
2013-03-16 16:30:00,37.5,23.0,29.79,SSW,200,1.0,-999.0,57,-99.99,,,0.00,weatherlink.com 1.10,2013-03-16 20:30:00,
2013-03-16 16:45:00,38.6,24.0,29.78,SSW,200,2.0,-999.0,57,-99.99,,,0.00,weatherlink.com 1.10,2013-03-16 20:45:00,
2013-03-16 17:02:00,39.5,25.0,29.78,SSW,192,2.0,-999.0,57,-99.99,,,0.00,weatherlink.com 1.10,2013-03-16 21:02:00,
2013-03-16 17:15:00,39.5,25.0,29.78,South,188,2.0,-999.0,57,-99.99,,,0.00,weatherlink.com 1.10,2013-03-16 21:15:00,
2013-03-16 17:30:00,38.4,25.0,29.78,South,190,2.0,-999.0,60,-99.99,,,0.00,weatherlink.com 1.10,2013-03-16 21:30:00,
2013-03-16 17:45:00,37.3,24.0,29.78,South,191,5.0,-999.0,58,-99.99,,,0.00,weatherlink.com 1.10,2013-03-16 21:45:00,
2013-03-16 18:02:00,37.1,23.0,29.77,SSW,205,5.0,-999.0,56,-99.99,,,0.00,weatherlink.com 1.10,2013-03-16 22:02:00,
2013-03-16 18:15:00,36.0,23.0,29.78,SSW,200,7.0,-999.0,59,-99.99,,,0.00,weatherlink.com 1.10,2013-03-16 22:15:00,
2013-03-16 18:31:00,35.4,24.0,29.78,SSW,210,5.0,-999.0,64,-99.99,,,0.00,weatherlink.com 1.10,2013-03-16 22:31:00,
2013-03-16 18:45:00,35.0,24.0,29.78,SSW,205,8.0,-999.0,65,-99.99,,,0.00,weatherlink.com 1.10,2013-03-16 22:45:00,
2013-03-16 19:02:00,34.5,24.0,29.78,SSW,205,5.0,-999.0,66,-99.99,,,0.00,weatherlink.com 1.10,2013-03-16 23:02:00,
2013-03-16 19:15:00,34.4,24.0,29.79,SSW,210,5.0,-999.0,66,-99.99,,,0.00,weatherlink.com 1.10,2013-03-16 23:15:00,
2013-03-16 19:30:00,34.4,24.0,29.79,SSW,210,4.0,-999.0,66,-99.99,,,0.00,weatherlink.com 1.10,2013-03-16 23:30:00,
2013-03-16 19:45:00,34.7,24.0,29.80,SSW,205,5.0,-999.0,65,-99.99,,,0.00,weatherlink.com 1.10,2013-03-16 23:45:00,
2013-03-16 20:02:00,34.8,25.0,29.81,SSW,205,3.0,-999.0,67,-99.99,,,0.00,weatherlink.com 1.10,2013-03-17 00:02:00,
2013-03-16 20:15:00,34.8,24.0,29.81,SSW,205,0.0,-999.0,65,-99.99,,,0.00,weatherlink.com 1.10,2013-03-17 00:15:00,
2013-03-16 20:30:00,34.9,24.0,29.82,SSW,205,0.0,-999.0,64,-99.99,,,0.00,weatherlink.com 1.10,2013-03-17 00:30:00,
2013-03-16 20:45:00,34.9,24.0,29.82,SSW,205,0.0,-999.0,65,-99.99,,,0.00,weatherlink.com 1.10,2013-03-17 00:45:00,
2013-03-16 21:02:00,35.0,25.0,29.83,SSW,205,4.0,-999.0,67,-99.99,,,0.00,weatherlink.com 1.10,2013-03-17 01:02:00,
2013-03-16 21:15:00,34.8,26.0,29.83,SSW,205,0.0,-999.0,69,-99.99,,,0.00,weatherlink.com 1.10,2013-03-17 01:15:00,
2013-03-16 21:30:00,34.6,26.0,29.84,SSW,205,1.0,-999.0,70,-99.99,,,0.00,weatherlink.com 1.10,2013-03-17 01:30:00,
2013-03-16 21:45:00,34.4,26.0,29.84,SSW,205,1.0,-999.0,70,-99.99,,,0.00,weatherlink.com 1.10,2013-03-17 01:45:00,
2013-03-16 22:02:00,34.5,26.0,29.84,SSW,205,2.0,-999.0,70,-99.99,,,0.00,weatherlink.com 1.10,2013-03-17 02:02:00,
2013-03-16 22:15:00,35.0,26.0,29.84,SSW,205,4.0,-999.0,70,-99.99,,,0.00,weatherlink.com 1.10,2013-03-17 02:15:00,
2013-03-16 22:30:00,35.1,26.0,29.85,SSW,205,5.0,-999.0,69,-99.99,,,0.00,weatherlink.com 1.10,2013-03-17 02:30:00,
2013-03-16 22:45:00,34.9,26.0,29.85,SSW,205,0.0,-999.0,69,-99.99,,,0.00,weatherlink.com 1.10,2013-03-17 02:45:00,
2013-03-16 23:02:00,34.7,25.0,29.85,SSW,205,0.0,-999.0,69,-99.99,,,0.00,weatherlink.com 1.10,2013-03-17 03:02:00,
2013-03-16 23:15:00,34.6,25.0,29.86,SSW,205,1.0,-999.0,69,-99.99,,,0.00,weatherlink.com 1.10,2013-03-17 03:15:00,
2013-03-16 23:30:00,35.0,26.0,29.86,SSW,205,3.0,-999.0,70,-99.99,,,0.00,weatherlink.com 1.10,2013-03-17 03:30:00,
2013-03-16 23:45:00,35.0,26.0,29.87,SSW,205,4.0,-999.0,69,-99.99,,,0.00,weatherlink.com 1.10,2013-03-17 03:45:00,